Location: Sternwarte_Laufen
(47.9344°N, 12.9346°E)
Time: 09:17:59
(UTC+02:00)

ISS - Pass Details

Date: 28 May 2017
Orbit: 401 x 408 km, 51.6° (Epoch: 28 June)

Event Time Altitude Azimuth Distance (km) Brightness Sun altitude
Rises 00:01:15 0° 280° (W) 2,339 0.4 -19.1°
Reaches altitude 10° 00:03:25 10° 288° (WNW) 1,477 -0.6 -19.2°
Maximum altitude 00:06:34 41° 1° (N) 606 -2.5 -19.4°
Drops below altitude 10° 00:09:44 10° 73° (ENE) 1,472 -1.0 -19.5°
Enters shadow 00:11:30 - 80° (E) 2,173 -0.2 -19.6°
